Year,Month,Day,Hour,Minute,Value (Times are PST for temperature in C)
2017,01,29,00,00,2.20
2017,01,29,00,01,2.20
2017,01,29,00,02,2.20
2017,01,29,00,03,2.20
2017,01,29,00,04,2.20
2017,01,29,00,05,2.20
2017,01,29,00,06,2.30
2017,01,29,00,07,2.30
2017,01,29,00,08,2.30
2017,01,29,00,09,2.30
2017,01,29,00,10,2.30
2017,01,29,00,11,2.30
2017,01,29,00,12,2.20
2017,01,29,00,13,2.20
2017,01,29,00,14,2.10
2017,01,29,00,15,2.10
2017,01,29,00,16,2.10
2017,01,29,00,17,2.00
2017,01,29,00,18,2.00
2017,01,29,00,19,2.00
2017,01,29,00,20,2.00
2017,01,29,00,21,2.00
2017,01,29,00,22,2.00
2017,01,29,00,23,2.00
2017,01,29,00,24,2.10
2017,01,29,00,25,2.10
2017,01,29,00,26,2.10
2017,01,29,00,27,2.00
2017,01,29,00,28,2.00
2017,01,29,00,29,2.00
2017,01,29,00,30,2.00
2017,01,29,00,31,2.00
2017,01,29,00,32,2.00
2017,01,29,00,33,1.90
2017,01,29,00,34,1.90
2017,01,29,00,35,1.90
2017,01,29,00,36,1.90
2017,01,29,00,37,1.90
2017,01,29,00,38,1.90
2017,01,29,00,39,1.90
2017,01,29,00,40,1.90
2017,01,29,00,41,1.90
2017,01,29,00,42,1.90
2017,01,29,00,43,1.90
2017,01,29,00,44,1.90
2017,01,29,00,45,1.90
2017,01,29,00,46,2.00
2017,01,29,00,47,2.00
2017,01,29,00,48,2.00
2017,01,29,00,49,2.00
2017,01,29,00,50,2.00
2017,01,29,00,51,2.00
2017,01,29,00,52,2.00
2017,01,29,00,53,2.00
2017,01,29,00,54,1.90
2017,01,29,00,55,1.80
2017,01,29,00,56,1.80
2017,01,29,00,57,1.70
2017,01,29,00,58,1.80
2017,01,29,00,59,1.80
2017,01,29,01,00,1.80
2017,01,29,01,01,1.80
2017,01,29,01,02,1.80
2017,01,29,01,03,1.90
2017,01,29,01,04,1.90
2017,01,29,01,05,2.00
2017,01,29,01,06,2.00
2017,01,29,01,07,2.00
2017,01,29,01,08,2.00
2017,01,29,01,09,2.00
2017,01,29,01,10,2.10
2017,01,29,01,11,2.10
2017,01,29,01,12,2.10
2017,01,29,01,13,2.10
2017,01,29,01,14,2.10
2017,01,29,01,15,2.10
2017,01,29,01,16,2.10
2017,01,29,01,17,2.10
2017,01,29,01,18,2.10
2017,01,29,01,19,2.10
2017,01,29,01,20,2.10
2017,01,29,01,21,2.10
2017,01,29,01,22,2.10
2017,01,29,01,23,2.10
2017,01,29,01,24,2.10
2017,01,29,01,25,2.00
2017,01,29,01,26,2.00
2017,01,29,01,27,2.00
2017,01,29,01,28,2.00
2017,01,29,01,29,2.00
2017,01,29,01,30,1.90
2017,01,29,01,31,1.90
2017,01,29,01,32,1.90
2017,01,29,01,33,1.90
2017,01,29,01,34,1.90
2017,01,29,01,35,1.90
2017,01,29,01,36,1.90
2017,01,29,01,37,1.90
2017,01,29,01,38,1.90
2017,01,29,01,39,2.00
2017,01,29,01,40,2.00
2017,01,29,01,41,2.00
2017,01,29,01,42,2.10
2017,01,29,01,43,2.10
2017,01,29,01,44,2.10
2017,01,29,01,45,2.20
2017,01,29,01,46,2.20
2017,01,29,01,47,2.20
2017,01,29,01,48,2.20
2017,01,29,01,49,2.20
2017,01,29,01,50,2.20
2017,01,29,01,51,2.20
2017,01,29,01,52,2.20
2017,01,29,01,53,2.10
2017,01,29,01,54,2.10
2017,01,29,01,55,2.10
2017,01,29,01,56,2.10
2017,01,29,01,57,2.10
2017,01,29,01,58,2.10
2017,01,29,01,59,2.00
2017,01,29,02,00,2.10
2017,01,29,02,01,2.10
2017,01,29,02,02,2.10
2017,01,29,02,03,2.10
2017,01,29,02,04,2.10
2017,01,29,02,05,2.10
2017,01,29,02,06,2.10
2017,01,29,02,07,2.10
2017,01,29,02,08,2.10
2017,01,29,02,09,2.10
2017,01,29,02,10,2.10
2017,01,29,02,11,2.00
2017,01,29,02,12,2.00
2017,01,29,02,13,2.00
2017,01,29,02,14,1.90
2017,01,29,02,15,1.90
2017,01,29,02,16,1.90
2017,01,29,02,17,1.90
2017,01,29,02,18,1.90
2017,01,29,02,19,1.90
2017,01,29,02,20,1.90
2017,01,29,02,21,1.90
2017,01,29,02,22,2.00
2017,01,29,02,23,2.10
2017,01,29,02,24,2.10
2017,01,29,02,25,2.10
2017,01,29,02,26,2.10
2017,01,29,02,27,2.10
2017,01,29,02,28,2.10
2017,01,29,02,29,2.10
2017,01,29,02,30,2.10
2017,01,29,02,31,2.10
2017,01,29,02,32,2.10
2017,01,29,02,33,2.10
2017,01,29,02,34,2.00
2017,01,29,02,35,2.00
2017,01,29,02,36,2.00
2017,01,29,02,37,2.00
2017,01,29,02,38,2.00
2017,01,29,02,39,2.00
2017,01,29,02,40,2.00
2017,01,29,02,41,2.00
2017,01,29,02,42,2.00
2017,01,29,02,43,1.90
2017,01,29,02,44,1.90
2017,01,29,02,45,1.90
2017,01,29,02,46,1.90
2017,01,29,02,47,1.90
2017,01,29,02,48,1.90
2017,01,29,02,49,1.90
2017,01,29,02,50,1.90
2017,01,29,02,51,1.90
2017,01,29,02,52,1.90
2017,01,29,02,53,1.90
2017,01,29,02,54,1.90
2017,01,29,02,55,1.90
2017,01,29,02,56,1.90
2017,01,29,02,57,1.90
2017,01,29,02,58,1.90
2017,01,29,02,59,1.90
2017,01,29,03,00,1.90
2017,01,29,03,01,1.90
2017,01,29,03,02,1.90
2017,01,29,03,03,1.90
2017,01,29,03,04,1.90
2017,01,29,03,05,1.90
2017,01,29,03,06,1.80
2017,01,29,03,07,1.80
2017,01,29,03,08,1.80
2017,01,29,03,09,1.80
2017,01,29,03,10,1.80
2017,01,29,03,11,1.80
2017,01,29,03,12,1.80
2017,01,29,03,13,1.80
2017,01,29,03,14,1.70
2017,01,29,03,15,1.70
2017,01,29,03,16,1.70
2017,01,29,03,17,1.70
2017,01,29,03,18,1.70
2017,01,29,03,19,1.70
2017,01,29,03,20,1.70
2017,01,29,03,21,1.60
2017,01,29,03,22,1.60
2017,01,29,03,23,1.60
2017,01,29,03,24,1.60
2017,01,29,03,25,1.60
2017,01,29,03,26,1.60
2017,01,29,03,27,1.60
2017,01,29,03,28,1.70
2017,01,29,03,29,1.70
2017,01,29,03,30,1.70
2017,01,29,03,31,1.70
2017,01,29,03,32,1.70
2017,01,29,03,33,1.70
2017,01,29,03,34,1.80
2017,01,29,03,35,1.80
2017,01,29,03,36,1.70
2017,01,29,03,37,1.70
2017,01,29,03,38,1.70
2017,01,29,03,39,1.70
2017,01,29,03,40,1.70
2017,01,29,03,41,1.70
2017,01,29,03,42,1.60
2017,01,29,03,43,1.70
2017,01,29,03,44,1.70
2017,01,29,03,45,1.70
2017,01,29,03,46,1.70
2017,01,29,03,47,1.70
2017,01,29,03,48,1.70
2017,01,29,03,49,1.70
2017,01,29,03,50,1.70
2017,01,29,03,51,1.70
2017,01,29,03,52,1.70
2017,01,29,03,53,1.60
2017,01,29,03,54,1.60
2017,01,29,03,55,1.60
2017,01,29,03,56,1.60
2017,01,29,03,57,1.60
2017,01,29,03,58,1.60
2017,01,29,03,59,1.60
2017,01,29,04,00,1.50
2017,01,29,04,01,1.50
2017,01,29,04,02,1.50
2017,01,29,04,03,1.50
2017,01,29,04,04,1.40
2017,01,29,04,05,1.50
2017,01,29,04,06,1.50
2017,01,29,04,07,1.50
2017,01,29,04,08,1.50
2017,01,29,04,09,1.40
2017,01,29,04,10,1.40
2017,01,29,04,11,1.40
2017,01,29,04,12,1.40
2017,01,29,04,13,1.40
2017,01,29,04,14,1.40
2017,01,29,04,15,1.40
2017,01,29,04,16,1.30
2017,01,29,04,17,1.30
2017,01,29,04,18,1.30
2017,01,29,04,19,1.30
2017,01,29,04,20,1.40
2017,01,29,04,21,1.40
2017,01,29,04,22,1.40
2017,01,29,04,23,1.40
2017,01,29,04,24,1.40
2017,01,29,04,25,1.40
2017,01,29,04,26,1.40
2017,01,29,04,27,1.40
2017,01,29,04,28,1.40
2017,01,29,04,29,1.40
2017,01,29,04,30,1.40
2017,01,29,04,31,1.40
2017,01,29,04,32,1.40
2017,01,29,04,33,1.40
2017,01,29,04,34,1.40
2017,01,29,04,35,1.40
2017,01,29,04,36,1.40
2017,01,29,04,37,1.40
2017,01,29,04,38,1.40
2017,01,29,04,39,1.40
2017,01,29,04,40,1.40
2017,01,29,04,41,1.40
2017,01,29,04,42,1.40
2017,01,29,04,43,1.40
2017,01,29,04,44,1.40
2017,01,29,04,45,1.40
2017,01,29,04,46,1.40
2017,01,29,04,47,1.30
2017,01,29,04,48,1.30
2017,01,29,04,49,1.30
2017,01,29,04,50,1.20
2017,01,29,04,51,1.20
2017,01,29,04,52,1.20
2017,01,29,04,53,1.20
2017,01,29,04,54,1.30
2017,01,29,04,55,1.30
2017,01,29,04,56,1.30
2017,01,29,04,57,1.30
2017,01,29,04,58,1.30
2017,01,29,04,59,1.30
2017,01,29,05,00,1.20
2017,01,29,05,01,1.20
2017,01,29,05,02,1.20
2017,01,29,05,03,1.30
2017,01,29,05,04,1.30
2017,01,29,05,05,1.30
2017,01,29,05,06,1.30
2017,01,29,05,07,1.40
2017,01,29,05,08,1.40
2017,01,29,05,09,1.50
2017,01,29,05,10,1.50
2017,01,29,05,11,1.60
2017,01,29,05,12,1.60
2017,01,29,05,13,1.60
2017,01,29,05,14,1.60
2017,01,29,05,15,1.60
2017,01,29,05,16,1.60
2017,01,29,05,17,1.50
2017,01,29,05,18,1.50
2017,01,29,05,19,1.50
2017,01,29,05,20,1.50
2017,01,29,05,21,1.60
2017,01,29,05,22,1.60
2017,01,29,05,23,1.60
2017,01,29,05,24,1.60
2017,01,29,05,25,1.60
2017,01,29,05,26,1.60
2017,01,29,05,27,1.60
2017,01,29,05,28,1.60
2017,01,29,05,29,1.60
2017,01,29,05,30,1.60
2017,01,29,05,31,1.60
2017,01,29,05,32,1.60
2017,01,29,05,33,1.60
2017,01,29,05,34,1.60
2017,01,29,05,35,1.60
2017,01,29,05,36,1.60
2017,01,29,05,37,1.50
2017,01,29,05,38,1.50
2017,01,29,05,39,1.40
2017,01,29,05,40,1.30
2017,01,29,05,41,1.30
2017,01,29,05,42,1.20
2017,01,29,05,43,1.20
2017,01,29,05,44,1.30
2017,01,29,05,45,1.30
2017,01,29,05,46,1.30
2017,01,29,05,47,1.40
2017,01,29,05,48,1.40
2017,01,29,05,49,1.40
2017,01,29,05,50,1.30
2017,01,29,05,51,1.30
2017,01,29,05,52,1.30
2017,01,29,05,53,1.30
2017,01,29,05,54,1.30
2017,01,29,05,55,1.30
2017,01,29,05,56,1.30
2017,01,29,05,57,1.30
2017,01,29,05,58,1.30
2017,01,29,05,59,1.30
2017,01,29,06,00,1.30
2017,01,29,06,01,1.30
2017,01,29,06,02,1.30
2017,01,29,06,03,1.40
2017,01,29,06,04,1.40
2017,01,29,06,05,1.50
2017,01,29,06,06,1.60
2017,01,29,06,07,1.70
2017,01,29,06,08,1.70
2017,01,29,06,09,1.70
2017,01,29,06,10,1.70
2017,01,29,06,11,1.70
2017,01,29,06,12,1.70
2017,01,29,06,13,1.80
2017,01,29,06,14,1.80
2017,01,29,06,15,1.80
2017,01,29,06,16,1.80
2017,01,29,06,17,1.80
2017,01,29,06,18,1.90
2017,01,29,06,19,2.00
2017,01,29,06,20,2.00
2017,01,29,06,21,2.10
2017,01,29,06,22,2.20
2017,01,29,06,23,2.20
2017,01,29,06,24,2.30
2017,01,29,06,25,2.30
2017,01,29,06,26,2.30
2017,01,29,06,27,2.30
2017,01,29,06,28,2.30
2017,01,29,06,29,2.30
2017,01,29,06,30,2.30
2017,01,29,06,31,2.30
2017,01,29,06,32,2.20
2017,01,29,06,33,2.20
2017,01,29,06,34,2.20
2017,01,29,06,35,2.30
2017,01,29,06,36,2.30
2017,01,29,06,37,2.30
2017,01,29,06,38,2.30
2017,01,29,06,39,2.20
2017,01,29,06,40,2.20
2017,01,29,06,41,2.10
2017,01,29,06,42,2.10
2017,01,29,06,43,2.10
2017,01,29,06,44,2.10
2017,01,29,06,45,2.20
2017,01,29,06,46,2.30
2017,01,29,06,47,2.50
2017,01,29,06,48,2.60
2017,01,29,06,49,2.70
2017,01,29,06,50,2.80
2017,01,29,06,51,2.80
2017,01,29,06,52,2.80
2017,01,29,06,53,2.90
2017,01,29,06,54,2.90
2017,01,29,06,55,2.90
2017,01,29,06,56,2.90
2017,01,29,06,57,2.90
2017,01,29,06,58,3.00
2017,01,29,06,59,3.00
2017,01,29,07,00,3.00
2017,01,29,07,01,3.00
2017,01,29,07,02,3.10
2017,01,29,07,03,3.10
2017,01,29,07,04,3.10
2017,01,29,07,05,3.10
2017,01,29,07,06,3.10
2017,01,29,07,07,3.20
2017,01,29,07,08,3.20
2017,01,29,07,09,3.20
2017,01,29,07,10,3.30
2017,01,29,07,11,3.30
2017,01,29,07,12,3.30
2017,01,29,07,13,3.30
2017,01,29,07,14,3.30
2017,01,29,07,15,3.30
2017,01,29,07,16,3.30
2017,01,29,07,17,3.30
2017,01,29,07,18,3.30
2017,01,29,07,19,3.30
2017,01,29,07,20,3.30
2017,01,29,07,21,3.40
2017,01,29,07,22,3.40
2017,01,29,07,23,3.40
2017,01,29,07,24,3.40
2017,01,29,07,25,3.40
2017,01,29,07,26,3.40
2017,01,29,07,27,3.40
2017,01,29,07,28,3.40
2017,01,29,07,29,3.40
2017,01,29,07,30,3.50
2017,01,29,07,31,3.50
2017,01,29,07,32,3.50
2017,01,29,07,33,3.50
2017,01,29,07,34,3.50
2017,01,29,07,35,3.50
2017,01,29,07,36,3.50
2017,01,29,07,37,3.50
2017,01,29,07,38,3.50
2017,01,29,07,39,3.50
2017,01,29,07,40,3.50
2017,01,29,07,41,3.60
2017,01,29,07,42,3.60
2017,01,29,07,43,3.60
2017,01,29,07,44,3.70
2017,01,29,07,45,3.70
2017,01,29,07,46,3.80
2017,01,29,07,47,3.80
2017,01,29,07,48,3.80
2017,01,29,07,49,3.90
2017,01,29,07,50,3.90
2017,01,29,07,51,3.90
2017,01,29,07,52,4.00
2017,01,29,07,53,4.00
2017,01,29,07,54,4.00
2017,01,29,07,55,4.00
2017,01,29,07,56,4.10
2017,01,29,07,57,4.10
2017,01,29,07,58,4.10
2017,01,29,07,59,4.10
2017,01,29,08,00,4.10
2017,01,29,08,01,4.10
2017,01,29,08,02,4.20
2017,01,29,08,03,4.20
2017,01,29,08,04,4.20
2017,01,29,08,05,4.20
2017,01,29,08,06,4.20
2017,01,29,08,07,4.20
2017,01,29,08,08,4.30
2017,01,29,08,09,4.30
2017,01,29,08,10,4.30
2017,01,29,08,11,4.40
2017,01,29,08,12,4.40
2017,01,29,08,13,4.40
2017,01,29,08,14,4.50
2017,01,29,08,15,4.50
2017,01,29,08,16,4.50
2017,01,29,08,17,4.60
2017,01,29,08,18,4.60
2017,01,29,08,19,4.60
2017,01,29,08,20,4.60
2017,01,29,08,21,4.60
2017,01,29,08,22,4.70
2017,01,29,08,23,4.70
2017,01,29,08,24,4.70
2017,01,29,08,25,4.70
2017,01,29,08,26,4.70
2017,01,29,08,27,4.70
2017,01,29,08,28,4.70
2017,01,29,08,29,4.80
2017,01,29,08,30,4.80
2017,01,29,08,31,4.80
2017,01,29,08,32,4.80
2017,01,29,08,33,4.90
2017,01,29,08,34,4.90
2017,01,29,08,35,4.90
2017,01,29,08,36,4.90
2017,01,29,08,37,4.90
2017,01,29,08,38,5.00
2017,01,29,08,39,5.00
2017,01,29,08,40,5.00
2017,01,29,08,41,5.00
2017,01,29,08,42,5.00
2017,01,29,08,43,5.00
2017,01,29,08,44,5.10
2017,01,29,08,45,5.10
2017,01,29,08,46,5.10
2017,01,29,08,47,5.10
2017,01,29,08,48,5.10
2017,01,29,08,49,5.20
2017,01,29,08,50,5.20
2017,01,29,08,51,5.20
2017,01,29,08,52,5.20
2017,01,29,08,53,5.20
2017,01,29,08,54,5.30
2017,01,29,08,55,5.30
2017,01,29,08,56,5.30
2017,01,29,08,57,5.30
2017,01,29,08,58,5.30
2017,01,29,08,59,5.30
2017,01,29,09,00,5.30
2017,01,29,09,01,5.40
2017,01,29,09,02,5.40
2017,01,29,09,03,5.40
2017,01,29,09,04,5.40
2017,01,29,09,05,5.40
2017,01,29,09,06,5.40
2017,01,29,09,07,5.40
2017,01,29,09,08,5.40
2017,01,29,09,09,5.40
2017,01,29,09,10,5.40
2017,01,29,09,11,5.40
2017,01,29,09,12,5.40
2017,01,29,09,13,5.40
2017,01,29,09,14,5.40
2017,01,29,09,15,5.40
2017,01,29,09,16,5.40
2017,01,29,09,17,5.50
2017,01,29,09,18,5.50
2017,01,29,09,19,5.50
2017,01,29,09,20,5.60
2017,01,29,09,21,5.60
2017,01,29,09,22,5.60
2017,01,29,09,23,5.70
2017,01,29,09,24,5.70
2017,01,29,09,25,5.80
2017,01,29,09,26,5.80
2017,01,29,09,27,5.90
2017,01,29,09,28,5.90
2017,01,29,09,29,6.00
2017,01,29,09,30,6.00
2017,01,29,09,31,6.10
2017,01,29,09,32,6.20
2017,01,29,09,33,6.20
2017,01,29,09,34,6.30
2017,01,29,09,35,6.40
2017,01,29,09,36,6.40
2017,01,29,09,37,6.50
2017,01,29,09,38,6.50
2017,01,29,09,39,6.60
2017,01,29,09,40,6.60
2017,01,29,09,41,6.60
2017,01,29,09,42,6.60
2017,01,29,09,43,6.60
2017,01,29,09,44,6.60
2017,01,29,09,45,6.60
2017,01,29,09,46,6.60
2017,01,29,09,47,6.60
2017,01,29,09,48,6.60
2017,01,29,09,49,6.60
2017,01,29,09,50,6.60
2017,01,29,09,51,6.60
2017,01,29,09,52,6.60
2017,01,29,09,53,6.50
2017,01,29,09,54,6.50
2017,01,29,09,55,6.50
2017,01,29,09,56,6.50
2017,01,29,09,57,6.60
2017,01,29,09,58,6.50
2017,01,29,09,59,6.50
2017,01,29,10,00,6.60
2017,01,29,10,01,6.60
2017,01,29,10,02,6.60
2017,01,29,10,03,6.60
2017,01,29,10,04,6.60
2017,01,29,10,05,6.60
2017,01,29,10,06,6.60
2017,01,29,10,07,6.60
2017,01,29,10,08,6.60
2017,01,29,10,09,6.60
2017,01,29,10,10,6.70
2017,01,29,10,11,6.70
2017,01,29,10,12,6.70
2017,01,29,10,13,6.70
2017,01,29,10,14,6.70
2017,01,29,10,15,6.70
2017,01,29,10,16,6.70
2017,01,29,10,17,6.80
2017,01,29,10,18,6.80
2017,01,29,10,19,6.80
2017,01,29,10,20,6.80
2017,01,29,10,21,6.80
2017,01,29,10,22,6.80
2017,01,29,10,23,6.80
2017,01,29,10,24,6.80
2017,01,29,10,25,6.80
2017,01,29,10,26,6.80
2017,01,29,10,27,6.80
2017,01,29,10,28,6.80
2017,01,29,10,29,6.80
2017,01,29,10,30,6.80
2017,01,29,10,31,6.80
2017,01,29,10,32,6.80
2017,01,29,10,33,6.80
2017,01,29,10,34,6.80
2017,01,29,10,35,6.80
2017,01,29,10,36,6.80
2017,01,29,10,37,6.80
2017,01,29,10,38,6.80
2017,01,29,10,39,6.80
2017,01,29,10,40,6.80
2017,01,29,10,41,6.80
2017,01,29,10,42,6.80
2017,01,29,10,43,6.80
2017,01,29,10,44,6.80
2017,01,29,10,45,6.80
2017,01,29,10,46,6.80
2017,01,29,10,47,6.80
2017,01,29,10,48,6.80
2017,01,29,10,49,6.80
2017,01,29,10,50,6.80
2017,01,29,10,51,6.80
2017,01,29,10,52,6.80
2017,01,29,10,53,6.80
2017,01,29,10,54,6.80
2017,01,29,10,55,6.80
2017,01,29,10,56,6.80
2017,01,29,10,57,6.80
2017,01,29,10,58,6.80
2017,01,29,10,59,6.80
2017,01,29,11,00,6.70
2017,01,29,11,01,6.70
2017,01,29,11,02,6.70
2017,01,29,11,03,6.70
2017,01,29,11,04,6.70
2017,01,29,11,05,6.70
2017,01,29,11,06,6.70
2017,01,29,11,07,6.70
2017,01,29,11,08,6.70
2017,01,29,11,09,6.70
2017,01,29,11,10,6.70
2017,01,29,11,11,6.70
2017,01,29,11,12,6.70
2017,01,29,11,13,6.70
2017,01,29,11,14,6.70
2017,01,29,11,15,6.70
2017,01,29,11,16,6.70
2017,01,29,11,17,6.70
2017,01,29,11,18,6.70
2017,01,29,11,19,6.70
2017,01,29,11,20,6.70
2017,01,29,11,21,6.70
2017,01,29,11,22,6.70
2017,01,29,11,23,6.70
2017,01,29,11,24,6.70
2017,01,29,11,25,6.70
2017,01,29,11,26,6.70
2017,01,29,11,27,6.70
2017,01,29,11,28,6.70
2017,01,29,11,29,6.70
2017,01,29,11,30,6.70
2017,01,29,11,31,6.70
2017,01,29,11,32,6.60
2017,01,29,11,33,6.60
2017,01,29,11,34,6.60
2017,01,29,11,35,6.60
2017,01,29,11,36,6.60
2017,01,29,11,37,6.60
2017,01,29,11,38,6.60
2017,01,29,11,39,6.60
2017,01,29,11,40,6.60
2017,01,29,11,41,6.60
2017,01,29,11,42,6.60
2017,01,29,11,43,6.60
2017,01,29,11,44,6.50
2017,01,29,11,45,6.50
2017,01,29,11,46,6.50
2017,01,29,11,47,6.50
2017,01,29,11,48,6.50
2017,01,29,11,49,6.50
2017,01,29,11,50,6.50
2017,01,29,11,51,6.60
2017,01,29,11,52,6.60
2017,01,29,11,53,6.60
2017,01,29,11,54,6.60
2017,01,29,11,55,6.60
2017,01,29,11,56,6.70
2017,01,29,11,57,6.70
2017,01,29,11,58,6.70
2017,01,29,11,59,6.70
2017,01,29,12,00,6.80
2017,01,29,12,01,6.80
2017,01,29,12,02,6.90
2017,01,29,12,03,6.90
2017,01,29,12,04,7.00
2017,01,29,12,05,7.00
2017,01,29,12,06,7.10
2017,01,29,12,07,7.10
2017,01,29,12,08,7.10
2017,01,29,12,09,7.20
2017,01,29,12,10,7.20
2017,01,29,12,11,7.30
2017,01,29,12,12,7.30
2017,01,29,12,13,7.30
2017,01,29,12,14,7.30
2017,01,29,12,15,7.40
2017,01,29,12,16,7.40
2017,01,29,12,17,7.40
2017,01,29,12,18,7.40
2017,01,29,12,19,7.50
2017,01,29,12,20,7.60
2017,01,29,12,21,7.60
2017,01,29,12,22,7.60
2017,01,29,12,23,7.70
2017,01,29,12,24,7.70
2017,01,29,12,25,7.70
2017,01,29,12,26,7.70
2017,01,29,12,27,7.70
2017,01,29,12,28,7.60
2017,01,29,12,29,7.60
2017,01,29,12,30,7.60
2017,01,29,12,31,7.60
2017,01,29,12,32,7.60
2017,01,29,12,33,7.50
2017,01,29,12,34,7.50
2017,01,29,12,35,7.60
2017,01,29,12,36,7.50
2017,01,29,12,37,7.50
2017,01,29,12,38,7.50
2017,01,29,12,39,7.40
2017,01,29,12,40,7.40
2017,01,29,12,41,7.40
2017,01,29,12,42,7.40
2017,01,29,12,43,7.40
2017,01,29,12,44,7.40
2017,01,29,12,45,7.30
2017,01,29,12,46,7.30
2017,01,29,12,47,7.30
2017,01,29,12,48,7.30
2017,01,29,12,49,7.30
2017,01,29,12,50,7.30
2017,01,29,12,51,7.30
2017,01,29,12,52,7.30
2017,01,29,12,53,7.30
2017,01,29,12,54,7.20
2017,01,29,12,55,7.20
2017,01,29,12,56,7.20
2017,01,29,12,57,7.20
2017,01,29,12,58,7.20
2017,01,29,12,59,7.20
2017,01,29,13,00,7.20
2017,01,29,13,01,7.20
2017,01,29,13,02,7.20
2017,01,29,13,03,7.20
2017,01,29,13,04,7.20
2017,01,29,13,05,7.20
2017,01,29,13,06,7.20
2017,01,29,13,07,7.20
2017,01,29,13,08,7.20
2017,01,29,13,09,7.20
2017,01,29,13,10,7.20
2017,01,29,13,11,7.20
2017,01,29,13,12,7.20
2017,01,29,13,13,7.30
2017,01,29,13,14,7.30
2017,01,29,13,15,7.30
2017,01,29,13,16,7.30
2017,01,29,13,17,7.30
2017,01,29,13,18,7.30
2017,01,29,13,19,7.30
2017,01,29,13,20,7.30
2017,01,29,13,21,7.30
2017,01,29,13,22,7.30
2017,01,29,13,23,7.40
2017,01,29,13,24,7.40
2017,01,29,13,25,7.50
2017,01,29,13,26,7.50
2017,01,29,13,27,7.50
2017,01,29,13,28,7.60
2017,01,29,13,29,7.60
2017,01,29,13,30,7.60
2017,01,29,13,31,7.60
2017,01,29,13,32,7.60
2017,01,29,13,33,7.70
2017,01,29,13,34,7.70
2017,01,29,13,35,7.70
2017,01,29,13,36,7.70
2017,01,29,13,37,7.70
2017,01,29,13,38,7.70
2017,01,29,13,39,7.70
2017,01,29,13,40,7.70
2017,01,29,13,41,7.70
2017,01,29,13,42,7.70
2017,01,29,13,43,7.70
2017,01,29,13,44,7.70
2017,01,29,13,45,7.70
2017,01,29,13,46,7.80
2017,01,29,13,47,7.80
2017,01,29,13,48,7.80
2017,01,29,13,49,7.90
2017,01,29,13,50,7.90
2017,01,29,13,51,7.90
2017,01,29,13,52,7.90
2017,01,29,13,53,7.90
2017,01,29,13,54,8.00
2017,01,29,13,55,8.00
2017,01,29,13,56,8.10
2017,01,29,13,57,8.10
2017,01,29,13,58,8.10
2017,01,29,13,59,8.10
2017,01,29,14,00,8.20
2017,01,29,14,01,8.20
2017,01,29,14,02,8.20
2017,01,29,14,03,8.30
2017,01,29,14,04,8.30
2017,01,29,14,05,8.40
2017,01,29,14,06,8.50
2017,01,29,14,07,8.50
2017,01,29,14,08,8.60
2017,01,29,14,09,8.60
2017,01,29,14,10,8.60
2017,01,29,14,11,8.60
2017,01,29,14,12,8.60
2017,01,29,14,13,8.60
2017,01,29,14,14,8.60
2017,01,29,14,15,8.60
2017,01,29,14,16,8.60
2017,01,29,14,17,8.60
2017,01,29,14,18,8.60
2017,01,29,14,19,8.70
2017,01,29,14,20,8.70
2017,01,29,14,21,8.70
2017,01,29,14,22,8.70
2017,01,29,14,23,8.70
2017,01,29,14,24,8.70
2017,01,29,14,25,8.70
2017,01,29,14,26,8.70
2017,01,29,14,27,8.80
2017,01,29,14,28,8.80
2017,01,29,14,29,8.70
2017,01,29,14,30,8.70
2017,01,29,14,31,8.80
2017,01,29,14,32,8.80
2017,01,29,14,33,8.80
2017,01,29,14,34,8.80
2017,01,29,14,35,8.80
2017,01,29,14,36,8.80
2017,01,29,14,37,8.80
2017,01,29,14,38,8.80
2017,01,29,14,39,8.80
2017,01,29,14,40,8.80
2017,01,29,14,41,8.80
2017,01,29,14,42,8.90
2017,01,29,14,43,8.90
2017,01,29,14,44,8.90
2017,01,29,14,45,8.80
2017,01,29,14,46,8.80
2017,01,29,14,47,8.80
2017,01,29,14,48,8.80
2017,01,29,14,49,8.80
2017,01,29,14,50,8.80
2017,01,29,14,51,8.80
2017,01,29,14,52,8.80
2017,01,29,14,53,8.80
2017,01,29,14,54,8.80
2017,01,29,14,55,8.80
2017,01,29,14,56,8.80
2017,01,29,14,57,8.80
2017,01,29,14,58,8.80
2017,01,29,14,59,8.80
2017,01,29,15,00,8.70
2017,01,29,15,01,8.70
2017,01,29,15,02,8.70
2017,01,29,15,03,8.70
2017,01,29,15,04,8.70
2017,01,29,15,05,8.70
2017,01,29,15,06,8.80
2017,01,29,15,07,8.80
2017,01,29,15,08,8.80
2017,01,29,15,09,8.80
2017,01,29,15,10,8.80
2017,01,29,15,11,8.80
2017,01,29,15,12,8.80
2017,01,29,15,13,8.80
2017,01,29,15,14,8.80
2017,01,29,15,15,8.90
2017,01,29,15,16,8.90
2017,01,29,15,17,9.00
2017,01,29,15,18,9.00
2017,01,29,15,19,9.10
2017,01,29,15,20,9.20
2017,01,29,15,21,9.20
2017,01,29,15,22,9.20
2017,01,29,15,23,9.30
2017,01,29,15,24,9.30
2017,01,29,15,25,9.30
2017,01,29,15,26,9.30
2017,01,29,15,27,9.30
2017,01,29,15,28,9.30
2017,01,29,15,29,9.30
2017,01,29,15,30,9.30
2017,01,29,15,31,9.30
2017,01,29,15,32,9.30
2017,01,29,15,33,9.30
2017,01,29,15,34,9.30
2017,01,29,15,35,9.40
2017,01,29,15,36,9.40
2017,01,29,15,37,9.40
2017,01,29,15,38,9.40
2017,01,29,15,39,9.50
2017,01,29,15,40,9.60
2017,01,29,15,41,9.60
2017,01,29,15,42,9.70
2017,01,29,15,43,9.80
2017,01,29,15,44,9.90
2017,01,29,15,45,10.00
2017,01,29,15,46,10.10
2017,01,29,15,47,10.20
2017,01,29,15,48,10.30
2017,01,29,15,49,10.30
2017,01,29,15,50,10.40
2017,01,29,15,51,10.50
2017,01,29,15,52,10.50
2017,01,29,15,53,10.50
2017,01,29,15,54,10.60
2017,01,29,15,55,10.60
2017,01,29,15,56,10.60
2017,01,29,15,57,10.60
2017,01,29,15,58,10.60
2017,01,29,15,59,10.60
2017,01,29,16,00,10.60
2017,01,29,16,01,10.60
2017,01,29,16,02,10.60
2017,01,29,16,03,10.60
2017,01,29,16,04,10.60
2017,01,29,16,05,10.60
2017,01,29,16,06,10.60
2017,01,29,16,07,10.60
2017,01,29,16,08,10.60
2017,01,29,16,09,10.50
2017,01,29,16,10,10.50
2017,01,29,16,11,10.40
2017,01,29,16,12,10.50
2017,01,29,16,13,10.40
2017,01,29,16,14,10.40
2017,01,29,16,15,10.40
2017,01,29,16,16,10.40
2017,01,29,16,17,10.40
2017,01,29,16,18,10.40
2017,01,29,16,19,10.40
2017,01,29,16,20,10.40
2017,01,29,16,21,10.40
2017,01,29,16,22,10.40
2017,01,29,16,23,10.40
2017,01,29,16,24,10.40
2017,01,29,16,25,10.40
2017,01,29,16,26,10.40
2017,01,29,16,27,10.40
2017,01,29,16,28,10.40
2017,01,29,16,29,10.40
2017,01,29,16,30,10.40
2017,01,29,16,31,10.40
2017,01,29,16,32,10.50
2017,01,29,16,33,10.50
2017,01,29,16,34,10.50
2017,01,29,16,35,10.60
2017,01,29,16,36,10.60
2017,01,29,16,37,10.60
2017,01,29,16,38,10.60
2017,01,29,16,39,10.60
2017,01,29,16,40,10.60
2017,01,29,16,41,10.60
2017,01,29,16,42,10.60
2017,01,29,16,43,10.60
2017,01,29,16,44,10.60
2017,01,29,16,45,10.60
2017,01,29,16,46,10.50
2017,01,29,16,47,10.40
2017,01,29,16,48,10.40
2017,01,29,16,49,10.30
2017,01,29,16,50,10.30
2017,01,29,16,51,10.30
2017,01,29,16,52,10.20
2017,01,29,16,53,10.20
2017,01,29,16,54,10.20
2017,01,29,16,55,10.20
2017,01,29,16,56,10.20
2017,01,29,16,57,10.10
2017,01,29,16,58,10.10
2017,01,29,16,59,10.00
2017,01,29,17,00,10.00
2017,01,29,17,01,10.00
2017,01,29,17,02,10.00
2017,01,29,17,03,10.00
2017,01,29,17,04,10.00
2017,01,29,17,05,9.90
2017,01,29,17,06,9.90
2017,01,29,17,07,9.90
2017,01,29,17,08,9.90
2017,01,29,17,09,9.90
2017,01,29,17,10,10.00
2017,01,29,17,11,10.00
2017,01,29,17,12,10.00
2017,01,29,17,13,10.00
2017,01,29,17,14,10.00
2017,01,29,17,15,9.90
2017,01,29,17,16,9.90
2017,01,29,17,17,9.90
2017,01,29,17,18,9.90
2017,01,29,17,19,9.90
2017,01,29,17,20,9.90
2017,01,29,17,21,9.90
2017,01,29,17,22,9.80
2017,01,29,17,23,9.80
2017,01,29,17,24,9.80
2017,01,29,17,25,9.80
2017,01,29,17,26,9.80
2017,01,29,17,27,9.80
2017,01,29,17,28,9.80
2017,01,29,17,29,9.80
2017,01,29,17,30,9.90
2017,01,29,17,31,9.90
2017,01,29,17,32,9.90
2017,01,29,17,33,9.90
2017,01,29,17,34,9.90
2017,01,29,17,35,9.90
2017,01,29,17,36,9.90
2017,01,29,17,37,9.80
2017,01,29,17,38,9.80
2017,01,29,17,39,9.80
2017,01,29,17,40,9.80
2017,01,29,17,41,9.80
2017,01,29,17,42,9.70
2017,01,29,17,43,9.70
2017,01,29,17,44,9.70
2017,01,29,17,45,9.70
2017,01,29,17,46,9.70
2017,01,29,17,47,9.70
2017,01,29,17,48,9.60
2017,01,29,17,49,9.60
2017,01,29,17,50,9.60
2017,01,29,17,51,9.60
2017,01,29,17,52,9.60
2017,01,29,17,53,9.60
2017,01,29,17,54,9.60
2017,01,29,17,55,9.60
2017,01,29,17,56,9.60
2017,01,29,17,57,9.60
2017,01,29,17,58,9.60
2017,01,29,17,59,9.60
2017,01,29,18,00,9.60
2017,01,29,18,01,9.50
2017,01,29,18,02,9.50